FW7302 Weather Reports


time (UTC)temp
F
wind
direction
speed
knots
gust
knots
rain 1hr
in
rain 24hr
in
rain mn
in
humidity
%
barometer
mb
20260906060737 72 278 0.9 0.9 0.00 0.00 0.00 99 1007.8
20260906060235 72 267 0.0 0.0 0.00 0.00 0.00 99 1007.8
20260906055730 72 271 0.0 0.0 0.00 0.00 0.00 98 1008.0
20260906055225 72 271 0.0 0.0 0.00 0.00 0.00 98 1008.2
20260906054721 73 271 0.0 0.0 0.00 0.00 0.00 98 1008.0
20260906054216 73 271 0.0 0.0 0.00 0.00 0.00 98 1008.5
20260906053713 72 271 0.9 0.9 0.00 0.00 0.00 98 1008.4
20260906053208 73 269 0.0 0.0 0.00 0.00 0.00 98 1008.6
20260906052703 73 251 0.9 0.9 0.00 0.00 0.00 97 1008.5
20260906052159 74 189 1.7 2.6 0.00 0.00 0.00 95 1008.5
20260906051656 75 274 0.0 0.0 0.00 0.00 0.00 93 1008.5
20260906051155 75 277 0.9 0.9 0.00 0.00 0.00 92 1008.6
20260906050651 75 285 0.9 0.9 0.00 0.00 0.00 92 1008.7
20260906050146 75 273 0.0 0.0 0.00 0.00 0.00 93 1008.5
20260906045644 74 286 0.0 0.0 0.00 0.00 0.00 93 1008.4
20260906045140 74 278 0.0 0.9 0.00 0.00 0.00 93 1008.4
20260906044636 73 284 1.7 2.6 0.00 0.00 0.00 95 1008.6
20260906044131 73 256 0.0 0.0 0.00 0.00 0.00 96 1008.5
20260906043627 74 262 0.9 0.9 0.00 0.00 0.00 94 1008.5
20260906043122 74 273 0.0 0.0 0.00 0.00 0.00 94 1008.6
20260906042621 74 284 1.7 2.6 0.00 0.00 0.00 96 1008.5
20260906042115 73 306 1.7 1.7 0.00 0.00 0.00 98 1008.7
20260906041612 73 285 0.9 0.9 0.00 0.00 0.00 99 1008.5
20260906041106 73 294 0.9 1.7 0.00 0.00 0.00 99 1008.8
20260906040602 72 263 0.0 0.9 0.05 0.00 0.00 99 1008.8
20260906040057 72 262 0.0 0.0 0.05 0.00 0.00 99 1008.6
20260906035552 72 261 0.9 0.9 0.00 0.08 0.08 99 1008.6
20260906035048 72 280 0.0 0.0 0.00 0.08 0.08 99 1008.7
20260906034548 72 280 0.9 0.9 0.00 0.08 0.08 99 1008.8
20260906034043 72 253 0.9 0.9 0.00 0.08 0.08 99 1008.7
20260906033538 73 284 0.0 0.0 0.00 0.08 0.08 99 1008.8
20260906033028 73 285 0.9 0.9 0.00 0.08 0.08 99 1008.7
20260906032524 73 270 0.0 0.0 0.00 0.08 0.08 99 1008.4
20260906032024 73 270 0.0 0.0 0.00 0.08 0.08 99 1008.6
20260906031520 73 268 0.0 0.0 0.00 0.08 0.08 99 1008.8
20260906031015 72 254 1.7 2.6 0.00 0.08 0.08 99 1008.4
20260906030514 72 272 1.7 1.7 0.00 0.08 0.08 99 1008.5
20260906030014 72 315 0.0 0.0 0.00 0.08 0.08 99 1008.5
20260906025514 72 315 0.0 0.0 0.00 0.08 0.08 99 1008.6
20260906025012 72 321 0.9 0.9 0.00 0.08 0.08 99 1008.4
20260906024508 73 317 0.9 0.9 0.00 0.08 0.08 99 1008.3
20260906024008 73 317 0.0 0.0 0.00 0.08 0.08 99 1008.3
20260906023504 73 324 0.0 0.9 0.00 0.08 0.08 99 1008.4
20260906022959 73 293 0.0 0.9 0.00 0.08 0.08 99 1008.4
20260906022454 73 315 0.9 1.7 0.00 0.08 0.08 99 1008.9
20260906021949 73 266 0.9 0.9 0.00 0.08 0.08 99 1008.7
20260906021444 74 276 0.0 0.0 0.00 0.08 0.08 99 1008.5
20260906020938 74 275 0.0 0.0 0.00 0.08 0.08 99 1008.6
20260906020432 74 275 0.0 0.0 0.00 0.08 0.08 99 1008.4
20260906015927 73 275 0.0 0.0 0.00 0.08 0.08 99 1008.5
20260906015427 73 269 0.0 0.0 0.00 0.08 0.08 99 1008.8
20260906014927 74 269 0.0 0.0 0.00 0.08 0.08 99 1008.7
20260906014426 73 269 0.0 0.0 0.00 0.08 0.08 99 1008.6
20260906013923 74 269 0.0 0.0 0.00 0.08 0.08 99 1008.7
20260906013418 74 267 0.9 0.9 0.00 0.08 0.08 99 1008.7
20260906012914 74 268 0.9 0.9 0.00 0.08 0.08 98 1008.5
20260906012408 74 268 0.9 0.9 0.00 0.08 0.08 98 1008.5
20260906011907 74 276 0.0 0.0 0.00 0.08 0.08 98 1008.5
20260906011403 75 256 0.0 0.0 0.00 0.08 0.08 97 1008.2
20260906010858 75 256 0.0 0.0 0.00 0.08 0.08 97 1007.9
20260906010354 75 256 0.0 0.0 0.00 0.08 0.08 97 1008.1
20260906005850 75 256 0.0 0.0 0.00 0.08 0.08 97 1008.0
20260906005349 75 258 0.9 0.9 0.00 0.08 0.08 97 1007.9
20260906004847 75 254 1.7 1.7 0.00 0.08 0.08 97 1007.4
20260906004347 75 290 1.7 1.7 0.00 0.08 0.08 97 1007.7
20260906003843 75 293 0.9 0.9 0.00 0.08 0.08 96 1008.1
20260906003338 75 258 0.0 0.0 0.00 0.08 0.08 96 1007.9
20260906002833 75 241 1.7 1.7 0.00 0.08 0.08 96 1007.8
20260906002333 75 251 0.9 1.7 0.00 0.08 0.08 96 1007.8
20260906001828 76 282 0.0 0.0 0.00 0.08 0.08 95 1007.6
20260906001324 76 256 0.9 1.7 0.00 0.08 0.08 94 1007.6
20260906000819 76 237 2.6 2.6 0.00 0.08 0.08 96 1007.6
20260906000314 76 284 0.0 0.0 0.00 0.08 0.08 95 1007.5
20260905235809 76 284 0.0 0.0 0.00 0.08 0.08 95 1007.5
20260905235308 76 284 0.0 0.0 0.00 0.08 0.08 95 1007.5
20260905234804 76 284 0.0 0.0 0.00 0.08 0.08 94 1007.3
20260905234259 76 285 0.0 0.0 0.00 0.08 0.08 94 1007.4
20260905233754 77 285 0.0 0.9 0.00 0.08 0.08 93 1007.2
20260905233254 77 261 0.0 0.0 0.00 0.08 0.08 94 1007.6
20260905232752 77 261 0.0 0.0 0.00 0.08 0.08 94 1007.4
20260905232249 78 261 0.0 0.0 0.00 0.08 0.08 94 1007.2
20260905231744 78 261 0.0 0.0 0.00 0.08 0.08 93 1007.3
20260905231239 78 261 0.0 0.0 0.00 0.08 0.08 92 1007.4
20260905230736 78 261 0.0 0.0 0.00 0.08 0.08 93 1007.7
20260905230233 78 261 0.0 0.0 0.00 0.08 0.08 93 1007.5
20260905225728 78 261 0.0 0.0 0.00 0.08 0.08 92 1007.7
20260905225223 78 260 0.0 0.0 0.00 0.08 0.08 90 1007.6
20260905224722 78 260 0.0 0.0 0.00 0.08 0.08 91 1007.8
20260905224218 78 260 0.0 0.0 0.00 0.08 0.08 92 1007.6
20260905223714 78 260 0.9 0.9 0.00 0.08 0.08 92 1007.6
20260905223211 78 285 0.0 0.0 0.00 0.08 0.08 91 1007.5
20260905222706 78 286 0.0 0.0 0.00 0.08 0.08 92 1007.7
20260905222205 77 287 0.0 0.0 0.00 0.08 0.08 92 1007.6
20260905221701 78 209 2.6 2.6 0.00 0.08 0.08 92 1007.5
20260905221157 78 290 1.7 1.7 0.00 0.08 0.08 90 1007.3
20260905220653 78 291 0.0 0.0 0.00 0.08 0.08 90 1007.1
20260905220149 78 302 0.9 1.7 0.00 0.08 0.08 90 1007.1
20260905215643 78 330 1.7 1.7 0.00 0.08 0.08 90 1007.0
20260905215138 78 271 0.0 0.9 0.00 0.08 0.08 91 1007.4
20260905214634 78 286 0.9 0.9 0.00 0.08 0.08 92 1007.3
20260905214129 77 290 0.9 0.9 0.00 0.08 0.08 91 1007.6
20260905213625 78 22 1.7 1.7 0.00 0.08 0.08 93 1007.8
20260905213120 77 286 1.7 1.7 0.00 0.08 0.08 93 1007.6
20260905212615 77 295 0.9 0.9 0.00 0.08 0.08 94 1008.0
20260905212114 77 296 0.9 0.9 0.00 0.08 0.08 94 1007.9
20260905211610 77 294 0.9 0.9 0.00 0.08 0.08 93 1007.8
20260905211105 77 281 0.9 0.9 0.00 0.08 0.08 93 1008.0
20260905210602 77 276 0.9 0.9 0.00 0.08 0.08 93 1008.1
20260905210056 77 302 0.9 0.9 0.00 0.08 0.08 95 1008.1
20260905205555 77 195 2.6 2.6 0.00 0.08 0.08 93 1008.1
20260905205055 77 322 0.9 1.7 0.00 0.08 0.08 93 1008.3
20260905204549 76 287 0.9 0.9 0.00 0.08 0.08 92 1008.1
20260905204045 76 305 0.9 0.9 0.00 0.08 0.08 93 1007.5
20260905203544 75 274 0.9 0.9 0.00 0.08 0.08 94 1007.7
20260905203040 75 277 0.0 0.0 0.00 0.08 0.08 95 1007.7
20260905202535 75 278 0.0 0.9 0.00 0.08 0.08 94 1007.5
20260905202031 75 272 0.0 0.9 0.00 0.08 0.08 93 1007.9
20260905201526 75 264 0.9 0.9 0.00 0.08 0.08 92 1008.3
20260905201025 75 278 0.9 0.9 0.00 0.08 0.08 92 1008.3
20260905200521 76 289 1.7 2.6 0.07 0.08 0.08 92 1008.2
20260905200020 77 342 7.0 7.8 0.50 0.08 0.08 91 1008.3
20260905195515 78 287 4.3 6.1 0.50 0.08 0.08 88 1008.3
20260905195010 83 263 1.7 2.6 0.07 0.01 0.01 78 1008.5
20260905194509 88 342 7.8 13.0 0.00 0.00 0.00 65 1008.8
20260905194004 91 349 5.2 6.1 0.00 0.00 0.00 62 1008.5
20260905193458 91 291 0.9 0.9 0.00 0.00 0.00 60 1007.8
20260905192953 92 275 1.7 1.7 0.00 0.00 0.00 59 1007.5
20260905192448 92 319 1.7 2.6 0.00 0.00 0.00 59 1007.5
20260905191945 93 289 0.9 0.9 0.00 0.00 0.00 56 1007.5
20260905191443 93 288 0.9 0.9 0.00 0.00 0.00 57 1007.5
20260905190937 94 295 0.9 0.9 0.00 0.00 0.00 55 1007.6
20260905190435 94 291 1.7 1.7 0.00 0.00 0.00 54 1007.4
20260905185934 94 292 0.9 0.9 0.00 0.00 0.00 54 1007.6
20260905185429 95 292 0.0 0.9 0.00 0.00 0.00 54 1007.2
20260905184928 96 280 0.9 0.9 0.00 0.00 0.00 53 1007.4
20260905184423 97 274 1.7 1.7 0.00 0.00 0.00 51 1007.4
20260905183922 97 316 2.6 2.6 0.00 0.00 0.00 53 1007.4
20260905183416 96 271 0.9 0.9 0.00 0.00 0.00 53 1007.4
20260905182912 95 253 0.9 1.7 0.00 0.00 0.00 53 1007.5
20260905182410 96 185 2.6 2.6 0.00 0.00 0.00 50 1007.7
20260905181907 98 150 5.2 6.1 0.00 0.00 0.00 51 1007.8
20260905181407 96 156 2.6 3.5 0.00 0.00 0.00 52 1008.0
20260905180905 96 148 3.5 3.5 0.00 0.00 0.00 55 1007.9
20260905180401 96 220 3.5 3.5 0.00 0.00 0.00 53 1008.1
20260905175856 95 247 2.6 2.6 0.00 0.00 0.00 55 1008.2
20260905175355 95 234 1.7 1.7 0.00 0.00 0.00 54 1008.4
20260905174850 95 298 1.7 2.6 0.00 0.00 0.00 54 1008.3
20260905174346 96 268 0.9 0.9 0.00 0.00 0.00 55 1008.6
20260905173842 94 297 1.7 1.7 0.00 0.00 0.00 59 1008.5
20260905173337 94 289 0.0 0.9 0.00 0.00 0.00 59 1008.5
20260905172832 94 308 2.6 2.6 0.00 0.00 0.00 58 1008.6
20260905172330 95 294 0.9 0.9 0.00 0.00 0.00 58 1008.8
20260905171826 95 277 0.9 1.7 0.00 0.00 0.00 56 1008.6
20260905171323 96 348 5.2 6.1 0.00 0.00 0.00 55 1008.7
20260905170819 94 186 3.5 3.5 0.00 0.00 0.00 58 1008.6
20260905170314 95 249 1.7 1.7 0.00 0.00 0.00 58 1009.1
20260905165814 94 217 2.6 2.6 0.00 0.00 0.00 58 1008.9
20260905165309 93 222 2.6 3.5 0.00 0.00 0.00 59 1009.1
20260905164804 95 296 1.7 1.7 0.00 0.00 0.00 57 1009.1
20260905164259 95 256 0.9 0.9 0.00 0.00 0.00 63 1009.2
20260905163754 94 260 1.7 1.7 0.00 0.00 0.00 62 1009.5
20260905163250 93 309 1.7 1.7 0.00 0.00 0.00 61 1009.9
20260905162746 94 220 2.6 3.5 0.00 0.00 0.00 60 1009.4
20260905162245 92 270 1.7 1.7 0.00 0.00 0.00 63 1009.5
20260905161740 91 211 4.3 5.2 0.00 0.00 0.00 65 1009.6
20260905161238 92 225 5.2 6.1 0.00 0.00 0.00 66 1009.8
20260905160732 93 346 0.9 0.9 0.00 0.00 0.00 65 1009.8
20260905160231 91 269 0.9 1.7 0.00 0.00 0.00 65 1009.8
20260905155726 93 255 5.2 6.1 0.00 0.00 0.00 64 1009.9
20260905155225 92 244 5.2 6.1 0.00 0.00 0.00 65 1009.6
20260905154719 91 278 1.7 2.6 0.00 0.00 0.00 69 1009.9
20260905154215 90 221 4.3 5.2 0.00 0.00 0.00 72 1010.1
20260905153711 90 258 1.7 2.6 0.00 0.00 0.00 73 1010.0
20260905153206 90 241 2.6 2.6 0.00 0.00 0.00 72 1010.0
20260905152701 91 272 0.0 0.9 0.00 0.00 0.00 69 1010.0
20260905152156 91 317 0.9 1.7 0.00 0.00 0.00 69 1009.9
20260905151656 90 232 3.5 5.2 0.00 0.00 0.00 70 1010.1
20260905151151 88 208 5.2 6.1 0.00 0.00 0.00 74 1010.2
20260905150651 88 277 3.5 3.5 0.00 0.00 0.00 75 1010.0
20260905150150 88 272 1.7 1.7 0.00 0.00 0.00 76 1010.3
20260905145649 88 261 3.5 3.5 0.00 0.00 0.00 73 1010.3
20260905145149 87 273 1.7 2.6 0.00 0.00 0.00 75 1010.2
20260905144643 87 230 2.6 3.5 0.00 0.00 0.00 76 1010.0
20260905144142 88 229 2.6 2.6 0.00 0.00 0.00 76 1010.1
20260905143637 88 259 1.7 1.7 0.00 0.00 0.00 75 1010.1
20260905143137 88 273 0.9 0.9 0.00 0.00 0.00 75 1010.4
20260905142636 87 274 0.0 0.0 0.00 0.00 0.00 76 1010.5
20260905142130 86 322 1.7 1.7 0.00 0.00 0.00 78 1010.2
20260905141625 86 240 3.5 3.5 0.00 0.00 0.00 79 1010.4
20260905141121 86 252 0.0 0.9 0.00 0.00 0.00 80 1010.5
20260905140616 85 267 1.7 1.7 0.00 0.00 0.00 80 1010.4
20260905140115 84 241 3.5 3.5 0.00 0.00 0.00 83 1010.4
20260905135611 83 265 0.9 1.7 0.00 0.00 0.00 84 1010.6
20260905135106 84 259 2.6 3.5 0.00 0.00 0.00 82 1010.7
20260905134601 84 237 1.7 2.6 0.00 0.00 0.00 83 1010.7
20260905134059 84 270 0.0 0.9 0.00 0.00 0.00 83 1010.7
20260905133555 82 275 0.9 0.9 0.00 0.00 0.00 85 1010.8
20260905133054 82 272 0.9 0.9 0.00 0.00 0.00 85 1010.5
20260905132554 81 240 1.7 1.7 0.00 0.00 0.00 88 1010.6
20260905132049 80 241 4.3 6.1 0.00 0.00 0.00 88 1010.6
20260905131545 81 213 3.5 5.2 0.00 0.00 0.00 87 1010.4
20260905131040 80 250 2.6 5.2 0.00 0.00 0.00 89 1010.6
20260905130539 79 233 2.6 5.2 0.00 0.00 0.00 90 1010.7
20260905130034 80 235 3.5 3.5 0.00 0.00 0.00 89 1010.7
20260905125533 79 258 1.7 1.7 0.00 0.00 0.00 91 1010.6
20260905125029 78 248 1.7 1.7 0.00 0.00 0.00 92 1010.4
20260905124526 78 246 2.6 2.6 0.00 0.00 0.00 93 1010.5
20260905124021 78 245 1.7 3.5 0.00 0.00 0.00 92 1010.4
20260905123517 77 264 1.7 2.6 0.00 0.00 0.00 94 1010.2
20260905123013 77 250 0.9 0.9 0.00 0.00 0.00 94 1010.7
20260905122507 77 272 0.0 0.9 0.00 0.00 0.00 94 1010.6
20260905121956 76 271 1.7 2.6 0.00 0.00 0.00 96 1010.4
20260905121452 75 239 2.6 2.6 0.00 0.00 0.00 96 1010.3
20260905120951 75 240 3.5 3.5 0.00 0.00 0.00 96 1010.3
20260905120445 75 273 0.9 0.9 0.00 0.00 0.00 97 1010.5
20260905115940 75 259 0.0 0.9 0.00 0.00 0.00 98 1010.2
20260905115439 74 248 1.7 1.7 0.00 0.00 0.00 98 1010.3
20260905114934 74 252 1.7 1.7 0.00 0.00 0.00 98 1010.3
20260905114434 74 256 2.6 3.5 0.00 0.00 0.00 99 1010.3
20260905113927 74 244 2.6 2.6 0.00 0.00 0.00 99 1010.1
20260905113423 73 243 3.5 3.5 0.00 0.00 0.00 99 1009.9
20260905112918 73 246 1.7 2.6 0.00 0.00 0.00 99 1009.8
20260905112414 73 244 2.6 2.6 0.00 0.00 0.00 99 1009.9
20260905111909 73 236 4.3 5.2 0.00 0.00 0.00 99 1009.8
20260905111408 73 236 3.5 3.5 0.00 0.00 0.00 99 1009.8
20260905110902 73 228 3.5 3.5 0.00 0.00 0.00 99 1009.5
20260905110356 73 243 2.6 2.6 0.00 0.00 0.00 99 1009.6
20260905105852 73 235 2.6 2.6 0.00 0.00 0.00 99 1009.9
20260905105350 73 251 3.5 3.5 0.00 0.00 0.00 99 1009.4
20260905104845 73 241 4.3 5.2 0.00 0.00 0.00 99 1009.5
20260905104342 73 250 1.7 2.6 0.00 0.00 0.00 99 1009.9
20260905103841 73 243 3.5 3.5 0.00 0.00 0.00 99 1009.5
20260905103337 73 229 3.5 3.5 0.00 0.00 0.00 99 1009.4
20260905102832 73 238 2.6 2.6 0.00 0.00 0.00 98 1009.5
20260905102329 73 226 3.5 3.5 0.00 0.00 0.00 98 1009.5
20260905101829 73 245 4.3 5.2 0.00 0.00 0.00 98 1009.4
20260905101327 73 236 2.6 2.6 0.00 0.00 0.00 98 1009.2
20260905100821 73 250 1.7 2.6 0.00 0.00 0.00 98 1009.1
20260905100317 74 238 3.5 3.5 0.00 0.00 0.00 98 1009.1
20260905095816 74 234 2.6 2.6 0.00 0.00 0.00 98 1009.0
20260905095310 74 246 2.6 2.6 0.00 0.00 0.00 97 1009.2
20260905094805 74 256 1.7 1.7 0.00 0.00 0.00 97 1009.1
20260905094301 74 270 0.0 0.9 0.00 0.00 0.00 97 1009.1
20260905093800 74 260 1.7 1.7 0.00 0.00 0.00 97 1009.1
20260905093256 74 257 2.6 3.5 0.00 0.00 0.00 97 1009.3
20260905092751 74 269 0.9 0.9 0.00 0.00 0.00 97 1009.4
20260905092246 74 266 0.9 0.9 0.00 0.00 0.00 97 1009.2
20260905091741 74 266 1.7 1.7 0.00 0.00 0.00 97 1009.2
20260905091236 74 263 2.6 2.6 0.00 0.00 0.00 97 1009.3
20260905090735 74 275 0.0 0.0 0.00 0.00 0.00 96 1009.2
20260905090231 74 254 1.7 2.6 0.00 0.00 0.00 96 1009.3
20260905085730 74 249 1.7 1.7 0.00 0.00 0.00 96 1009.5
20260905085224 75 245 1.7 1.7 0.00 0.00 0.00 96 1009.5
20260905084718 74 243 1.7 1.7 0.00 0.00 0.00 96 1009.4
20260905084218 74 247 1.7 1.7 0.00 0.00 0.00 96 1009.4
20260905083713 74 253 1.7 1.7 0.00 0.00 0.00 96 1009.4
20260905083209 75 246 1.7 1.7 0.00 0.00 0.00 96 1009.6
20260905082705 75 271 0.0 0.0 0.00 0.00 0.00 96 1009.5
20260905082200 75 263 0.9 0.9 0.00 0.00 0.00 96 1009.5
20260905081654 75 278 0.0 0.0 0.00 0.00 0.00 95 1009.6
20260905081149 75 276 0.0 0.9 0.00 0.00 0.00 95 1009.5
20260905080643 75 274 0.0 0.9 0.00 0.00 0.00 95 1009.5
20260905080143 75 268 0.9 1.7 0.00 0.00 0.00 95 1009.6
20260905075642 75 256 1.7 1.7 0.00 0.00 0.00 95 1009.5
20260905075141 75 255 1.7 1.7 0.00 0.00 0.00 95 1009.8
20260905074640 75 252 0.9 1.7 0.00 0.00 0.00 95 1009.5
20260905074137 75 252 0.9 0.9 0.00 0.00 0.00 95 1009.9
20260905073632 75 252 0.9 0.9 0.00 0.00 0.00 95 1009.9
20260905073128 75 252 1.7 1.7 0.00 0.00 0.00 95 1009.5
20260905072627 75 252 1.7 1.7 0.00 0.00 0.00 95 1009.9
20260905072123 75 253 0.0 0.0 0.00 0.00 0.00 95 1009.9
20260905071620 75 253 0.0 0.0 0.00 0.00 0.00 94 1009.8
20260905071115 75 253 0.0 0.0 0.00 0.00 0.00 93 1010.2
20260905070610 76 253 0.0 0.0 0.00 0.00 0.00 93 1010.0
20260905070106 76 253 0.0 0.0 0.00 0.00 0.00 93 1009.9
20260905065603 76 253 0.9 1.7 0.00 0.00 0.00 92 1009.9
20260905065058 76 253 0.9 0.9 0.00 0.00 0.00 92 1010.1
20260905064553 76 253 0.9 0.9 0.00 0.00 0.00 92 1010.2
20260905064048 76 245 1.7 1.7 0.00 0.00 0.00 92 1010.1
20260905063547 77 255 1.7 1.7 0.00 0.00 0.00 91 1010.1
20260905063043 77 255 1.7 1.7 0.00 0.00 0.00 91 1010.1
20260905062538 77 271 0.0 0.9 0.00 0.00 0.00 91 1010.2
20260905062033 77 243 2.6 2.6 0.00 0.00 0.00 90 1010.3
20260905061528 77 258 1.7 1.7 0.00 0.00 0.00 90 1010.6
20260905061027 77 257 1.7 1.7 0.00 0.00 0.00 90 1010.6